Location: Haulchin
(50.3172°N, 3.4360°E)
Time: 14:51:19
(UTC+00:00)

Cosmos 1953 - Pass Details

Date: 23 May 2024
Orbit: 510 x 531 km, 82.5° (Epoch: 18 June)

Event Time Altitude Azimuth Distance (km) Brightness Sun altitude
Rises 00:58:16 0° 350° (N) 2,688 7.0 -17.1°
Reaches altitude 10° 01:00:26 10° 352° (N) 1,790 5.9 -17.0°
Maximum altitude 01:04:22 78° 79° (E) 546 2.3 -16.8°
Enters shadow 01:06:16 29° 162° (SSE) 983 3.2 -16.7°
